Location: Croydon
(51.3762°N, 0.0982°W)
Time: 07:37:38
(UTC+00:00)

Altair - Pass Details

Date: 19 November 2019
Orbit: 1502 x 1682 km, 47.2° (Epoch: 14 December)

Event Time Altitude Azimuth Distance (km) Brightness Sun altitude
Rises 01:57:00 0° 202° (SSW) 4,646 - -48.9°
Reaches altitude 10° 02:00:34 10° 192° (SSW) 3,655 - -48.5°
Maximum altitude 02:07:54 28° 138° (SE) 2,524 - -47.6°
Exits shadow 02:10:25 25° 113° (ESE) 2,687 8.9 -47.2°
Drops below altitude 10° 02:15:14 10° 84° (E) 3,669 9.9 -46.6°
Sets 02:18:48 0° 73° (ENE) 4,667 10.7 -46.2°
